JA0BES-13 Nagano Prefecture JP current weather conditions

sailwx.info

Wind from 225

Air temperature 2.8° C
Dewpoint -4.7° C

Last reported at 2020-Jan-25 10:03 UTC.
Time now 2020-Jan-25 10:27 UTC

Location: N 36°40' E 138°12'.
View on Google Maps.

See reports from other nearby stations

  
Tides and Currents Weather Stations Pressure Air Temp Water Temp Dewpoint Dewpoint Depression Visibility Wind Speed Wind Dir Waves Ship Positions
date/time (UTC)wind fromknots sea level pressurealtimeterstation pressurevisibilityair tempwater tempwave heightnotes
2020-Jan-25 10:03 225 2.8
2020-Jan-25 09:53 225 2.8
2020-Jan-25 09:43 225 2.8
2020-Jan-25 09:33 128 0 gusting 3 2.8
2020-Jan-25 09:23 225 3.3
2020-Jan-25 09:13 160 0 gusting 1 3.3
2020-Jan-25 09:03 245 3.3
2020-Jan-25 08:53 216 3.3
2020-Jan-25 08:43 182 3.3
2020-Jan-25 08:33 225 3.9
2020-Jan-25 08:23 249 3.9
2020-Jan-25 08:13 148 3.9
2020-Jan-25 08:03 182 0 gusting 0 3.9
2020-Jan-25 07:53 195 4.4
2020-Jan-25 07:43 192 4.4
2020-Jan-25 07:33 229 0 gusting 2 4.4
2020-Jan-25 07:23 252 5.0
2020-Jan-25 07:13 236 5.6
2020-Jan-25 07:03 225 5.6
2020-Jan-25 06:53 142 5.6
2020-Jan-25 06:43 140 1 gusting 1 6.1
2020-Jan-25 06:33 230 6.7
2020-Jan-25 06:23 228 6.7
2020-Jan-25 06:13 216 6.7
2020-Jan-25 06:03 202 7.2
2020-Jan-25 05:53 249 1 gusting 1 7.8
2020-Jan-25 05:43 225 8.3
2020-Jan-25 05:33 225 8.9
2020-Jan-25 05:23 199 9.4
2020-Jan-25 05:13 120 10.0
2020-Jan-25 05:03 225 10.0
2020-Jan-25 04:53 199 0 gusting 1 10.0
2020-Jan-25 04:43 247 10.0
2020-Jan-25 04:33 229 10.6
2020-Jan-25 04:23 148 0 gusting 1 10.6
2020-Jan-25 04:13 261 10.6
2020-Jan-25 04:03 253 0 gusting 0 10.6
2020-Jan-25 03:53 225 10.6
2020-Jan-25 03:43 243 1 gusting 1 10.6
2020-Jan-25 03:33 198 10.6
2020-Jan-25 03:23 258 0 gusting 0 10.6
2020-Jan-25 03:13 220 10.6
2020-Jan-25 03:03 337 10.0
2020-Jan-25 02:53 238 9.4
2020-Jan-25 02:43 192 8.9
2020-Jan-25 02:33 174 8.3
2020-Jan-25 02:23 135 0 gusting 0 8.3
2020-Jan-25 02:13 185 7.8
2020-Jan-25 02:03 225 7.2
2020-Jan-25 01:53 225 7.2
2020-Jan-25 01:43 256 0 gusting 1 6.7
2020-Jan-25 01:33 220 6.7
2020-Jan-25 01:23 238 6.7
2020-Jan-25 01:13 180 6.7
2020-Jan-25 01:03 256 1 gusting 4 6.7
2020-Jan-25 00:53 247 5.6
2020-Jan-25 00:43 247 4.4
2020-Jan-25 00:33 144 0 gusting 0 4.4
2020-Jan-25 00:23 234 4.4
2020-Jan-25 00:13 225 4.4
2020-Jan-25 00:03 225 4.4
2020-Jan-24 23:53 229 3.3
2020-Jan-24 23:43 225 2.8
2020-Jan-24 23:33 198 2.2
2020-Jan-24 23:23 225 2.2
2020-Jan-24 23:13 225 2.2
2020-Jan-24 23:03 185 2.2
2020-Jan-24 22:53 256 1.7
2020-Jan-24 22:43 225 1.1
2020-Jan-24 22:33 225 1.1
2020-Jan-24 22:23 254 1.1
2020-Jan-24 22:13 230 1.1
2020-Jan-24 22:03 211 1.1
2020-Jan-24 21:53 225 1.1
2020-Jan-24 21:43 225 1.1
2020-Jan-24 21:33 225 1.1
2020-Jan-24 21:23 225 1.1
2020-Jan-24 21:13 225 1.1
2020-Jan-24 21:03 225 1.1
2020-Jan-24 20:53 225 1.1
2020-Jan-24 20:43 225 1.1
2020-Jan-24 20:33 168 1.1
2020-Jan-24 20:23 193 1.1
2020-Jan-24 20:13 198 1.1
2020-Jan-24 20:03 225 1.1
2020-Jan-24 19:53 234 1.1
2020-Jan-24 19:43 225 1.1
2020-Jan-24 19:33 216 1.1
2020-Jan-24 19:23 163 1.1
2020-Jan-24 19:13 105 1.1
2020-Jan-24 19:03 225 1.7
2020-Jan-24 18:53 235 1.1
2020-Jan-24 18:43 225 1.7
2020-Jan-24 18:33 225 1.7
2020-Jan-24 18:23 202 1.7
2020-Jan-24 18:13 225 1.7
2020-Jan-24 18:03 225 1.7
2020-Jan-24 17:53 225 1.7
2020-Jan-24 17:43 225 1.7
2020-Jan-24 17:33 225 1.7
2020-Jan-24 17:23 225 1.7
2020-Jan-24 17:13 225 1.7
2020-Jan-24 17:03 225 1.7
2020-Jan-24 16:53 225 1.7
2020-Jan-24 16:43 220 1.7
2020-Jan-24 16:33 238 1.7
2020-Jan-24 16:23 254 1.7
2020-Jan-24 16:13 090 2 gusting 2 1.7
2020-Jan-24 16:03 095 1 gusting 2 1.7
2020-Jan-24 15:53 213 1.7
2020-Jan-24 15:43 225 1.7
2020-Jan-24 15:33 225 1.7
2020-Jan-24 15:23 225 2.2
2020-Jan-24 15:13 126 0 gusting 0 1.7
2020-Jan-24 15:03 225 1.7
2020-Jan-24 14:53 247 2.2
2020-Jan-24 14:43 045 2.2
2020-Jan-24 14:33 225 2.2
2020-Jan-24 14:23 225 2.2
2020-Jan-24 14:13 207 2.2
2020-Jan-24 14:03 216 2.2
2020-Jan-24 13:53 238 2.2
2020-Jan-24 13:43 221 2.8
2020-Jan-24 13:33 229 2.8
2020-Jan-24 13:23 236 2.8
2020-Jan-24 13:13 225 2.8
2020-Jan-24 13:03 142 0 gusting 3 2.8
2020-Jan-24 12:53 186 3.3
2020-Jan-24 12:43 092 2 gusting 2 3.3
2020-Jan-24 12:33 057 0 gusting 2 3.3
2020-Jan-24 12:23 140 3.3
2020-Jan-24 12:13 238 0 gusting 0 3.9
2020-Jan-24 12:03 225 3.9
2020-Jan-24 11:53 090 1 gusting 2 3.9
2020-Jan-24 11:43 225 3.9
2020-Jan-24 11:33 207 3.9
2020-Jan-24 11:23 225 3.9
2020-Jan-24 11:13 115 3.9
2020-Jan-24 11:03 117 1 gusting 4 3.9
2020-Jan-24 10:53 193 4.4
2020-Jan-24 10:43 225 4.4
2020-Jan-24 10:33 130 1 gusting 2 4.4
2020-Jan-24 10:22 225 4.4
2020-Jan-24 10:12 261 4.4
2020-Jan-24 10:02 153 1 gusting 1 4.4
2020-Jan-24 09:52 099 2 gusting 2 4.4
2020-Jan-24 09:42 190 5.0
2020-Jan-24 09:32 225 5.0
2020-Jan-24 09:22 140 0 gusting 1 5.6
2020-Jan-24 09:12 225 5.6
2020-Jan-24 09:02 225 6.1
2020-Jan-24 08:52 229 0 gusting 2 6.1
2020-Jan-24 08:42 225 6.7
2020-Jan-24 08:32 045 0 gusting 0 6.7
2020-Jan-24 08:22 231 6.7
2020-Jan-24 08:12 225 6.7
2020-Jan-24 08:02 225 6.7
2020-Jan-24 07:52 265 0 gusting 3 7.2
2020-Jan-24 07:32 243 0 gusting 1 7.8
2020-Jan-24 07:22 225 8.3
2020-Jan-24 07:12 225 8.3
2020-Jan-24 07:02 147 8.3
2020-Jan-24 06:52 229 9.4
2020-Jan-24 06:42 122 9.4
2020-Jan-24 06:32 225 0 gusting 1 10.6
2020-Jan-24 06:22 243 0 gusting 3 11.1
2020-Jan-24 06:12 240 0 gusting 2 12.2
2020-Jan-24 06:02 243 0 gusting 1 12.8
2020-Jan-24 05:52 120 13.9
2020-Jan-24 05:42 254 0 gusting 0 14.4
2020-Jan-24 05:32 225 14.4
2020-Jan-24 05:22 211 13.9
2020-Jan-24 05:12 225 13.3
2020-Jan-24 05:02 159 0 gusting 2 12.8
2020-Jan-24 04:52 225 13.3
2020-Jan-24 04:42 225 13.9
2020-Jan-24 04:32 110 0 gusting 0 14.4
2020-Jan-24 04:22 166 15.0
2020-Jan-24 04:12 243 14.4
2020-Jan-24 04:02 245 13.9
2020-Jan-24 03:52 234 13.3
2020-Jan-24 03:42 247 0 gusting 1 12.8
2020-Jan-24 03:32 060 0 gusting 2 12.8
2020-Jan-24 03:22 198 12.8
2020-Jan-24 03:12 199 0 gusting 1 13.3
2020-Jan-24 03:02 094 0 gusting 3 13.3
2020-Jan-24 02:52 236 13.9
2020-Jan-24 02:42 135 0 gusting 0 13.9
2020-Jan-24 02:32 109 0 gusting 1 13.9
2020-Jan-24 02:22 171 13.3
2020-Jan-24 02:12 202 0 gusting 4 12.8
2020-Jan-24 02:02 128 0 gusting 0 12.2
2020-Jan-24 01:52 276 11.7
2020-Jan-24 01:42 225 11.1
2020-Jan-24 01:32 225 10.6
2020-Jan-24 01:22 225 10.0
2020-Jan-24 01:02 234 8.3
2020-Jan-24 00:52 099 0 gusting 0 7.2
2020-Jan-24 00:42 225 7.2
2020-Jan-24 00:32 225 6.7
2020-Jan-24 00:22 225 6.1
2020-Jan-24 00:12 225 6.1
2020-Jan-24 00:02 225 5.6
2020-Jan-23 23:52 225 5.6
2020-Jan-23 23:42 225 5.0
2020-Jan-23 23:32 225 5.6
2020-Jan-23 23:22 225 5.0
2020-Jan-23 23:12 225 5.6
2020-Jan-23 23:02 225 5.0
2020-Jan-23 22:52 225 5.0
2020-Jan-23 22:42 225 5.0
2020-Jan-23 22:32 225 5.0
2020-Jan-23 22:22 225 5.0
2020-Jan-23 22:12 225 5.0
2020-Jan-23 22:01 225 5.0
2020-Jan-23 21:51 225 5.0
2020-Jan-23 21:41 225 5.0
2020-Jan-23 21:31 189 5.0
2020-Jan-23 20:55 155 0 gusting 0 4.4
2020-Jan-23 20:52 157 4.4
2020-Jan-23 20:26 225 3.9
2020-Jan-23 20:16 225 4.4
2020-Jan-23 20:06 225 5.0
2020-Jan-23 19:56 225 5.0
2020-Jan-23 19:46 225 4.4
2020-Jan-23 19:43 225 5.0
2020-Jan-23 19:33 225 5.0
2020-Jan-23 19:23 225 4.4
2020-Jan-23 19:13 225 4.4
2020-Jan-23 19:03 225 4.4
2020-Jan-23 18:53 225 4.4
2020-Jan-23 18:43 225 4.4
2020-Jan-23 18:33 225 4.4
2020-Jan-23 18:23 225 4.4
2020-Jan-23 18:13 225 4.4
2020-Jan-23 18:08 225 4.4
2020-Jan-23 17:58 225 4.4
2020-Jan-23 17:48 225 4.4
2020-Jan-23 17:43 225 4.4
2020-Jan-23 17:30 225 5.0
2020-Jan-23 17:20 193 4.4
2020-Jan-23 17:10 225 5.0
2020-Jan-23 17:00 225 5.0
2020-Jan-23 16:50 225 4.4
2020-Jan-23 16:40 225 5.0
2020-Jan-23 16:30 225 5.0
2020-Jan-23 16:20 225 5.0
2020-Jan-23 16:10 225 5.6
2020-Jan-23 16:00 225 5.0
2020-Jan-23 15:50 225 5.6
2020-Jan-23 15:40 225 5.0
2020-Jan-23 15:30 225 5.0
2020-Jan-23 15:20 225 4.4
2020-Jan-23 15:12 225 5.0
2020-Jan-23 15:02 225 5.0
2020-Jan-23 14:58 180 5.6
2020-Jan-23 14:53 225 5.0
2020-Jan-23 14:47 225 5.6
2020-Jan-23 14:41 225 5.0
2020-Jan-23 14:38 225 5.6
2020-Jan-23 14:29 225 5.6
2020-Jan-23 14:24 225 5.6
2020-Jan-23 14:19 225 5.6
2020-Jan-23 14:12 225 5.0
2020-Jan-23 14:09 225 5.0
2020-Jan-23 14:00 225 5.0
2020-Jan-23 13:51 225 5.0
2020-Jan-23 13:40 225 5.0
2020-Jan-23 13:30 225 5.0
2020-Jan-23 13:20 225 5.0
2020-Jan-23 13:10 225 5.0
2020-Jan-23 13:00 225 5.0
2020-Jan-23 12:50 225 5.0
2020-Jan-23 12:40 225 5.0
2020-Jan-23 12:30 225 5.0
2020-Jan-23 12:20 225 5.0
2020-Jan-23 12:00 225 5.0
2020-Jan-23 11:50 225 5.0
2020-Jan-23 11:40 298 5.6
2020-Jan-23 11:30 222 5.6
2020-Jan-23 11:20 164 5.6
2020-Jan-23 11:10 225 5.6
2020-Jan-23 11:00 225 5.6
2020-Jan-23 10:50 225 5.6
2020-Jan-23 10:40 225 5.6
2020-Jan-23 10:30 225 5.0
2020-Jan-23 10:20 225 5.0
2020-Jan-23 10:10 225 5.0
2020-Jan-23 10:00 225 5.0